�N����,����,�~����,�C��,���x,�C��,����,���ϕ���,�ő�u�ԕ���,�ő厞����,���˗�,�I�_���x,�n�����x,�ő啗���N��,DTYPE
"23/05/15","00:10",0.0,16.6,94.8,1004.8,290.3,0.7,1.2,319.6,0.00,15.8,16.9,"00:02:32",1
"23/05/15","00:20",0.0,16.4,94.8,1004.5,265.7,1.2,1.9,254.8,0.00,15.6,17.1,"00:18:08",1
"23/05/15","00:30",0.0,16.3,94.7,1004.5,312.7,1.2,2.4,320.3,0.00,15.5,16.8,"00:28:00",1
"23/05/15","00:40",0.0,16.3,94.5,1004.3,327.7,0.8,2.5,352.5,0.00,15.5,16.7,"00:33:52",1
"23/05/15","00:50",0.0,16.2,94.2,1004.5,28.9,0.8,2.7,132.2,0.00,15.3,16.7,"00:47:52",1
"23/05/15","01:00",0.0,16.3,93.8,1004.5,333.2,1.1,2.6,331.3,0.00,15.3,16.9,"00:54:48",1
"23/05/15","01:10",0.0,16.3,93.5,1004.5,278.9,0.7,1.8,317.4,0.00,15.3,16.8,"01:00:16",1
"23/05/15","01:20",0.0,16.4,92.9,1004.3,281.3,1.0,1.6,259.8,0.00,15.3,16.8,"01:17:12",1
"23/05/15","01:30",0.0,16.4,92.7,1004.5,301.8,2.0,2.7,316.6,0.00,15.3,16.7,"01:24:40",1
"23/05/15","01:40",0.0,16.2,92.7,1004.5,295.9,1.2,3.1,315.6,0.00,15.1,16.8,"01:30:08",1
"23/05/15","01:50",0.0,16.1,92.7,1004.3,321.0,1.6,2.1,333.3,0.00,15.0,16.7,"01:49:52",1
"23/05/15","02:00",0.0,15.9,92.7,1004.3,316.6,1.6,2.6,324.3,0.00,14.8,16.6,"01:50:08",1
"23/05/15","02:10",0.0,15.9,92.9,1004.3,301.0,1.5,1.8,322.4,0.00,14.8,16.9,"02:00:24",1
"23/05/15","02:20",0.0,15.7,93.1,1004.5,306.5,1.6,2.4,321.6,0.00,14.6,16.9,"02:14:56",1
"23/05/15","02:30",0.0,15.6,93.2,1003.8,297.7,1.2,1.9,313.6,0.00,14.5,16.8,"02:25:46",1
"23/05/15","02:40",0.0,15.4,93.5,1004.3,296.1,1.2,1.9,311.8,0.00,14.4,16.8,"02:36:10",1
"23/05/15","02:50",0.0,15.4,93.7,1004.1,306.9,1.5,2.0,319.4,0.00,14.4,16.7,"02:40:02",1
"23/05/15","03:00",0.0,15.2,93.8,1004.1,321.7,1.2,1.7,307.2,0.00,14.2,16.7,"02:50:24",1
"23/05/15","03:10",0.0,15.1,94.0,1004.1,319.7,1.3,1.7,323.6,0.00,14.2,16.6,"03:00:48",1
"23/05/15","03:20",0.0,15.0,94.2,1004.1,320.6,1.5,1.9,319.3,0.00,14.1,16.7,"03:16:56",1
"23/05/15","03:30",0.0,14.8,94.3,1003.8,314.9,1.1,1.6,323.2,0.00,13.9,16.8,"03:25:28",1
"23/05/15","03:40",0.0,14.7,94.4,1004.3,304.0,1.1,1.8,312.1,0.00,13.9,16.7,"03:35:36",1
"23/05/15","03:50",0.0,14.5,94.6,1004.3,288.8,1.0,1.3,270.4,0.00,13.7,16.7,"03:46:00",1
"23/05/15","04:00",0.0,14.5,94.9,1004.3,287.1,1.2,1.7,322.4,0.00,13.7,16.6,"03:59:36",1
"23/05/15","04:10",0.0,14.3,95.0,1004.5,325.4,1.6,1.8,327.8,0.00,13.6,16.8,"04:01:54",1
"23/05/15","04:20",0.0,14.1,95.2,1004.3,308.3,1.5,1.7,320.2,0.00,13.4,16.6,"04:10:56",1
"23/05/15","04:30",0.0,13.9,95.4,1004.5,303.7,1.0,1.7,310.0,0.00,13.2,16.6,"04:20:32",1
"23/05/15","04:40",0.0,13.8,95.5,1004.3,281.0,0.7,1.1,279.1,0.00,13.1,16.6,"04:39:36",1
"23/05/15","04:50",0.0,13.9,95.7,1004.5,309.8,1.2,1.7,326.8,0.00,13.3,16.8,"04:44:32",1
"23/05/15","05:00",0.0,13.8,95.7,1004.5,314.4,1.6,2.0,322.2,0.00,13.2,16.5,"04:53:04",1
"23/05/15","05:10",0.0,13.6,95.9,1004.5,299.4,0.7,0.9,298.4,0.00,13.0,16.5,"05:00:08",1
"23/05/15","05:20",0.0,13.6,96.0,1004.5,285.0,1.2,2.0,317.6,0.00,13.0,16.5,"05:18:24",1
"23/05/15","05:30",0.0,13.6,96.1,1004.3,320.4,1.5,1.8,320.7,0.00,13.0,16.4,"05:21:06",1
"23/05/15","05:40",0.0,13.5,96.1,1004.5,292.9,1.0,1.4,307.0,0.00,12.9,16.3,"05:33:28",1
"23/05/15","05:50",0.0,13.4,96.3,1004.5,296.4,1.2,1.9,312.4,0.00,12.9,16.3,"05:44:58",1
"23/05/15","06:00",0.0,13.6,96.5,1004.3,322.9,1.6,2.2,324.6,0.00,13.1,16.5,"05:58:32",1
"23/05/15","06:10",0.0,13.7,96.6,1004.5,312.0,1.2,2.1,321.2,0.00,13.2,16.4,"06:09:36",1
"23/05/15","06:20",0.0,14.0,96.6,1005.0,317.9,1.5,1.8,322.6,0.01,13.5,16.3,"06:11:12",1
"23/05/15","06:30",0.0,14.1,96.7,1004.8,309.1,1.5,1.8,323.3,0.01,13.6,16.5,"06:29:44",1
"23/05/15","06:40",0.0,14.4,96.7,1005.2,319.6,1.3,1.8,311.2,0.03,13.9,16.4,"06:30:16",1
"23/05/15","06:50",0.0,14.6,96.7,1005.2,317.6,1.2,1.8,317.9,0.03,14.1,16.1,"06:43:36",1
"23/05/15","07:00",0.0,14.7,96.8,1005.2,321.8,1.5,2.1,329.1,0.04,14.2,16.2,"06:55:32",1
"23/05/15","07:10",0.0,14.9,96.7,1005.2,299.7,1.3,2.5,321.3,0.06,14.4,16.1,"07:08:18",1
"23/05/15","07:20",0.0,15.6,97.0,1005.2,313.5,1.5,2.1,314.8,0.12,15.2,16.3,"07:10:56",1
"23/05/15","07:30",0.0,16.5,96.9,1005.5,313.8,1.2,2.0,336.7,0.19,16.0,16.4,"07:21:20",1
"23/05/15","07:40",0.0,17.1,96.6,1005.5,325.5,1.3,2.0,335.0,0.21,16.6,16.1,"07:36:24",1
"23/05/15","07:50",0.0,18.0,96.0,1005.5,309.6,1.2,2.2,335.8,0.27,17.4,16.2,"07:43:52",1
"23/05/15","08:00",0.0,17.9,94.8,1005.7,276.3,1.0,1.8,260.3,0.15,17.1,16.3,"07:59:28",1
"23/05/15","08:10",0.0,18.0,94.8,1006.0,286.2,0.6,1.6,252.2,0.15,17.2,16.3,"08:00:32",1
"23/05/15","08:20",0.0,18.4,94.1,1006.2,290.9,0.3,1.1,319.2,0.16,17.5,16.3,"08:15:44",1
"23/05/15","08:30",0.0,17.7,93.1,1006.4,337.0,0.5,1.3,340.2,0.13,16.6,16.4,"08:23:12",1
"23/05/15","08:40",0.0,18.3,92.5,1006.4,319.8,0.5,1.0,302.9,0.16,17.1,16.2,"08:36:32",1
"23/05/15","08:50",0.0,18.9,90.5,1006.2,308.8,1.1,2.1,332.9,0.26,17.4,16.3,"08:44:56",1
"23/05/15","09:00",0.0,19.0,87.0,1006.4,336.7,1.3,2.4,334.5,0.20,16.8,16.4,"08:51:20",1
"23/05/15","09:10",0.0,19.3,83.3,1006.0,330.2,1.2,1.9,331.6,0.12,16.4,16.3,"09:08:24",1
"23/05/15","09:20",0.0,18.9,82.7,1006.0,317.7,1.5,2.4,306.0,0.08,15.9,16.3,"09:19:52",1
"23/05/15","09:30",0.0,18.1,85.6,1005.7,334.6,1.6,2.6,328.1,0.08,15.7,16.3,"09:22:24",1
"23/05/15","09:40",0.0,18.2,87.7,1005.5,338.6,1.0,2.0,354.7,0.14,16.2,16.4,"09:31:36",1
"23/05/15","09:50",0.0,18.7,89.1,1005.5,344.6,0.7,1.4,332.7,0.29,16.9,16.5,"09:44:24",1
"23/05/15","10:00",0.0,18.9,89.3,1005.5,291.8,1.1,2.0,323.6,0.36,17.1,16.5,"09:54:32",1
"23/05/15","10:10",0.0,19.5,89.4,1005.5,311.6,0.6,1.8,340.5,0.37,17.8,16.3,"10:03:52",1
"23/05/15","10:20",0.0,19.2,87.8,1006.0,214.8,0.5,1.6,122.2,0.25,17.2,16.6,"10:17:52",1
"23/05/15","10:30",0.0,19.3,88.1,1005.7,223.8,0.6,1.2,124.3,0.22,17.3,16.4,"10:26:08",1
"23/05/15","10:40",0.0,19.9,87.3,1005.7,330.4,0.2,0.8,345.4,0.31,17.8,16.6,"10:34:40",1
"23/05/15","10:50",0.0,21.3,86.9,1005.2,248.8,0.8,2.0,193.8,0.58,19.1,16.7,"10:46:40",1
"23/05/15","11:00",0.0,21.3,83.5,1005.0,175.5,1.0,2.1,238.3,0.57,18.4,16.7,"10:57:28",1
"23/05/15","11:10",0.0,21.1,81.4,1005.0,171.6,1.2,2.6,152.0,0.50,17.8,16.6,"11:05:04",1
"23/05/15","11:20",0.0,21.7,78.8,1004.8,53.3,1.2,4.0,118.3,0.64,17.9,16.8,"11:15:12",1
"23/05/15","11:30",0.0,22.8,76.6,1004.3,197.5,1.1,2.6,138.7,0.68,18.5,16.8,"11:22:48",1
"23/05/15","11:40",0.0,22.1,72.4,1004.3,118.5,1.3,2.9,111.7,0.30,16.9,17.0,"11:38:00",1
"23/05/15","11:50",0.0,21.9,73.5,1004.3,151.5,1.1,2.0,211.9,0.28,17.0,16.9,"11:45:52",1
"23/05/15","12:00",0.0,21.3,73.6,1004.1,93.7,1.1,3.2,90.9,0.17,16.4,17.0,"11:52:40",1
"23/05/15","12:10",0.0,22.3,72.8,1004.1,186.2,1.2,3.3,152.4,0.46,17.2,17.1,"12:00:32",1
"23/05/15","12:20",0.0,23.7,70.1,1003.8,219.2,1.0,1.9,181.9,0.61,18.0,17.3,"12:11:44",1
"23/05/15","12:30",0.0,23.4,65.8,1003.8,81.1,0.8,1.8,56.6,0.41,16.7,17.2,"12:22:48",1
"23/05/15","12:40",0.0,23.7,65.1,1003.1,107.6,1.2,3.9,110.4,0.46,16.8,17.3,"12:33:20",1
"23/05/15","12:50",0.0,22.7,67.3,1003.4,113.2,1.5,3.5,128.9,0.20,16.4,17.2,"12:44:56",1
"23/05/15","13:00",0.0,23.0,67.0,1003.6,5.4,1.3,3.9,314.4,0.44,16.6,17.2,"12:57:04",1
"23/05/15","13:10",0.0,24.3,65.4,1003.4,41.3,1.0,2.4,29.5,0.63,17.4,17.5,"13:03:20",1
"23/05/15","13:20",0.0,24.5,64.4,1002.6,121.0,1.5,3.4,113.3,0.63,17.4,17.2,"13:18:24",1
"23/05/15","13:30",0.0,24.6,63.4,1002.6,97.2,1.3,4.1,125.4,0.62,17.2,17.2,"13:28:00",1
"23/05/15","13:40",0.0,24.7,61.3,1002.6,116.6,1.3,3.3,109.8,0.62,16.8,17.6,"13:31:12",1
"23/05/15","13:50",0.0,24.6,60.6,1002.4,170.8,1.7,3.4,141.5,0.64,16.5,17.7,"13:47:12",1
"23/05/15","14:00",0.0,25.4,59.1,1001.9,166.6,1.0,3.2,133.7,0.65,16.9,17.7,"13:56:56",1
"23/05/15","14:10",0.0,25.7,60.0,1001.9,36.6,1.0,2.0,352.3,0.52,17.4,17.8,"14:03:36",1
"23/05/15","14:20",0.0,25.9,55.9,1001.7,115.5,0.8,2.1,106.8,0.59,16.5,17.9,"14:10:08",1
"23/05/15","14:30",0.0,25.8,54.2,1001.7,19.4,1.2,2.2,355.5,0.58,15.9,17.9,"14:23:28",1
"23/05/15","14:40",0.0,25.7,54.6,1001.5,7.6,1.5,3.2,309.3,0.57,15.9,18.1,"14:31:28",1
"23/05/15","14:50",0.0,26.3,53.6,1001.5,28.8,1.0,2.2,323.5,0.57,16.2,18.3,"14:49:52",1
"23/05/15","15:00",0.0,25.9,52.9,1001.2,322.8,1.0,2.8,357.2,0.42,15.6,18.0,"14:58:40",1
"23/05/15","15:10",0.0,26.6,55.9,1001.5,211.5,1.0,2.9,202.7,0.56,17.1,18.2,"15:07:44",1
"23/05/15","15:20",0.0,27.0,52.6,1001.5,212.3,1.1,2.6,142.7,0.58,16.5,18.3,"15:17:04",1
"23/05/15","15:30",0.0,26.8,51.2,1001.7,229.2,1.3,3.2,227.7,0.58,15.9,18.4,"15:26:40",1
"23/05/15","15:40",0.0,26.6,54.3,1001.2,123.7,0.8,2.1,357.4,0.29,16.7,18.4,"15:39:44",1
"23/05/15","15:50",0.0,23.9,65.5,1001.2,11.5,2.1,3.5,13.4,0.07,17.1,18.4,"15:43:20",1
"23/05/15","16:00",0.0,22.8,71.9,1001.7,0.4,1.6,3.3,344.7,0.26,17.5,18.4,"15:59:52",1
"23/05/15","16:10",0.0,22.0,76.6,1001.9,311.8,1.3,3.3,335.1,0.17,17.7,18.7,"16:00:48",1
"23/05/15","16:20",0.0,21.7,79.7,1001.5,292.7,0.6,1.1,279.6,0.14,18.1,18.6,"16:10:40",1
"23/05/15","16:30",0.0,22.8,80.0,1001.9,304.8,1.2,2.1,316.6,0.44,19.2,18.8,"16:25:36",1
"23/05/15","16:40",0.0,23.5,75.7,1001.5,264.0,0.6,1.9,344.4,0.20,19.0,18.7,"16:30:16",1
"23/05/15","16:50",0.0,24.8,72.7,1001.7,270.1,0.5,1.4,252.6,0.28,19.6,18.8,"16:48:56",1
"23/05/15","17:00",0.0,24.4,67.1,1001.7,336.3,1.6,3.2,345.9,0.10,17.9,18.9,"16:55:12",1
"23/05/15","17:10",0.0,24.2,65.7,1001.9,348.6,2.6,5.2,320.6,0.22,17.4,18.9,"17:03:04",1
"23/05/15","17:20",0.0,24.8,64.7,1001.7,342.0,2.1,4.9,329.3,0.19,17.7,18.9,"17:16:24",1
"23/05/15","17:30",0.0,24.7,61.7,1002.2,345.0,2.5,5.0,352.0,0.14,16.9,18.9,"17:27:52",1
"23/05/15","17:40",0.0,23.4,61.9,1002.4,346.9,2.7,4.3,332.2,0.05,15.7,18.9,"17:30:56",1
"23/05/15","17:50",0.0,23.0,58.6,1002.2,346.2,3.0,8.0,340.5,0.05,14.5,18.9,"17:42:00",1
"23/05/15","18:00",0.0,23.6,57.1,1001.7,339.2,2.7,4.9,319.0,0.09,14.7,18.9,"17:50:48",1
"23/05/15","18:10",0.0,23.9,55.8,1001.9,341.5,2.2,5.2,334.0,0.02,14.6,19.0,"18:02:56",1
"23/05/15","18:20",0.0,23.7,54.3,1001.7,352.7,2.0,3.6,6.5,0.01,14.0,19.0,"18:15:44",1
"23/05/15","18:30",0.0,23.2,58.6,1002.2,341.4,2.1,3.9,336.3,0.01,14.7,19.0,"18:27:20",1
"23/05/15","18:40",0.0,22.7,58.3,1002.2,340.4,2.3,4.3,354.4,0.01,14.1,18.8,"18:39:52",1
"23/05/15","18:50",0.0,21.9,57.7,1002.4,333.3,2.7,5.6,327.8,0.00,13.2,19.1,"18:43:44",1
"23/05/15","19:00",0.0,21.7,60.0,1002.6,337.1,2.5,4.8,338.1,0.00,13.6,18.9,"18:52:32",1
"23/05/15","19:10",0.0,20.9,62.7,1002.9,334.3,2.6,4.0,334.8,0.00,13.6,19.1,"19:01:36",1
"23/05/15","19:20",0.0,20.2,66.5,1003.1,332.2,2.6,3.5,334.6,0.00,13.8,18.9,"19:13:28",1
"23/05/15","19:30",0.0,19.4,69.5,1003.1,333.3,3.0,4.3,334.0,0.00,13.7,19.0,"19:21:44",1
"23/05/15","19:40",0.0,18.9,71.7,1003.6,336.3,2.3,3.5,332.6,0.00,13.7,18.7,"19:33:36",1
"23/05/15","19:50",0.0,18.3,74.3,1003.8,335.9,2.2,3.3,339.0,0.00,13.7,18.9,"19:44:08",1
"23/05/15","20:00",0.0,17.8,77.6,1003.8,332.6,2.1,3.4,324.9,0.00,13.9,18.8,"19:52:00",1
"23/05/15","20:10",0.0,17.5,79.6,1004.3,334.8,2.2,3.4,344.8,0.00,14.0,18.7,"20:08:16",1
"23/05/15","20:20",0.0,17.3,80.7,1004.1,334.4,2.2,3.5,334.9,0.00,14.0,18.8,"20:12:40",1
"23/05/15","20:30",0.0,17.3,81.1,1004.1,309.8,2.1,3.6,286.5,0.00,14.1,18.7,"20:29:04",1
"23/05/15","20:40",0.0,17.2,81.3,1004.8,243.0,0.6,1.3,189.5,0.00,14.0,18.8,"20:39:12",1
"23/05/15","20:50",0.0,17.1,81.3,1004.5,320.9,1.2,2.4,326.8,0.00,13.9,18.7,"20:49:28",1
"23/05/15","21:00",0.0,17.1,81.2,1004.8,339.2,1.2,2.4,328.0,0.00,13.9,18.7,"20:54:08",1
"23/05/15","21:10",0.0,17.2,80.8,1005.0,313.7,1.8,4.3,335.6,0.00,13.9,18.5,"21:05:12",1
"23/05/15","21:20",0.0,17.1,80.2,1005.2,310.4,2.1,3.7,324.1,0.00,13.7,18.5,"21:18:58",1
"23/05/15","21:30",0.0,17.3,79.2,1005.5,317.2,2.1,3.7,344.6,0.00,13.7,18.6,"21:20:34",1
"23/05/15","21:40",0.0,17.0,80.1,1005.7,331.2,1.7,3.4,344.4,0.00,13.6,18.5,"21:34:10",1
"23/05/15","21:50",0.0,16.0,82.3,1005.5,304.4,2.0,2.8,316.2,0.00,13.0,18.4,"21:45:50",1
"23/05/15","22:00",0.0,15.7,84.1,1005.5,313.2,2.3,4.7,323.8,0.00,13.1,18.3,"21:58:14",1
"23/05/15","22:10",0.0,15.9,84.4,1005.7,328.0,2.5,3.9,326.5,0.00,13.3,18.3,"22:01:24",1
"23/05/15","22:20",0.0,15.9,84.5,1006.4,318.9,1.7,2.7,322.2,0.00,13.3,18.3,"22:16:10",1
"23/05/15","22:30",0.0,16.0,84.8,1006.4,319.3,1.8,3.1,337.1,0.00,13.5,18.3,"22:23:20",1
"23/05/15","22:40",0.0,16.2,84.6,1006.4,325.4,2.6,4.5,318.4,0.00,13.6,18.3,"22:33:36",1
"23/05/15","22:50",0.0,16.2,84.4,1006.2,331.4,2.3,4.0,343.7,0.00,13.6,18.3,"22:43:06",1
"23/05/15","23:00",0.0,16.2,84.3,1006.4,332.5,1.8,3.5,344.0,0.00,13.6,18.2,"22:52:42",1
"23/05/15","23:10",0.0,16.0,84.5,1006.4,337.9,1.7,3.5,322.4,0.00,13.4,17.9,"23:04:38",1
"23/05/15","23:20",0.0,15.8,84.6,1006.7,339.6,1.7,2.8,341.0,0.00,13.3,18.2,"23:12:34",1
"23/05/15","23:30",0.0,15.5,84.9,1006.9,340.6,2.1,3.2,332.0,0.00,13.0,17.9,"23:21:14",1
"23/05/15","23:40",0.0,15.2,85.4,1006.4,334.7,2.1,3.4,327.7,0.00,12.8,17.9,"23:39:20",1
"23/05/15","23:50",0.0,15.0,86.1,1006.9,341.5,2.2,3.6,343.4,0.00,12.7,18.1,"23:47:40",1
"23/05/15","24:00",0.0,14.9,86.8,1006.9,332.6,2.3,3.4,336.0,0.00,12.8,17.9,"23:54:14",1
